Regional Weather Roundup
Issued by NWS Midland/Odessa, TX

Skip options and go directly to product.
Home | Oldest Version | Previous Version | Current Version | All | Graphics & Text | Save Text | Print | Product List | Glossary On

Skip product version selection by date and time.   
068
ASUS44 KMAF 301210
RWRMAF
MIDLAND AREA WEATHER ROUNDUP
NATIONAL WEATHER SERVICE MIDLAND TX
700 AM CDT THU JUL 30 2015

...IN SOUTHWEST TEXAS AND SOUTHEAST NEW MEXICO...

CITY           SKY/WX    TMP DP  RH WIND       PRES   REMARKS
ALPINE         MOCLDY    65  56  72 W5        30.30R
ANDREWS        FAIR      73  58  59 CALM      30.18R
ARTESIA        PTCLDY    70  64  83 N18       30.25R
BIG SPRING     PTCLDY    75  56  51 SE5       30.18R
CARLSBAD       CLEAR     72  63  73 NW16      30.19R
DRYDEN           N/A     76  59  55 VRB7      30.10R
FORT STOCKTON  CLEAR     72  55  55 S9        30.15R
GUAD PASS      CLEAR     70  54  56 E6        30.33R
HOBBS          MOCLDY    75  59  57 CALM      30.22R
MARFA          MOCLDY    64  59  82 NW8       30.28R
MIDLAND AIRPK  CLEAR     76  58  53 CALM      30.17R
MIDLAND INTL   CLEAR     75  57  53 SE3       30.16R
ODESSA         CLEAR     77  55  46 SE3       30.17R
PECOS          CLEAR     74  55  50 E5        30.12R
PRESIDIO       FAIR      75  57  52 MISG      30.11S
SEMINOLE       CLEAR     70  61  74 CALM      30.20R
SNYDER         CLEAR     76  62  61 S5        30.16R
WINK           PTCLDY    75  55  49 E5        30.14R
$$
...OTHER STATIONS IN TEXAS...

CITY           SKY/WX    TMP DP  RH WIND       PRES   REMARKS
ABILENE        CLEAR     75  63  66 S6        30.12R
AMARILLO       CLOUDY    70  67  90 NW7       30.27R FOG
AUSTIN         PTCLDY    70  70 100 CALM      30.06R
BROWNSVILLE    CLEAR    N/A N/A N/A CALM      30.01R HAZE
CORPUS CHRISTI FOG       72  71  97 CALM      30.03R VSB 1/4
DALLAS FTW     PTCLDY    81  65  58 CALM      30.06R
DEL RIO        CLEAR     76  69  79 E6        30.06R
EL PASO        LGT RAIN  69  65  86 NE12      30.25R
HOUSTON INT    MOCLDY    80  76  87 NW6       30.03R
LUBBOCK        PTCLDY    69  63  81 NE6       30.20R
SAN ANGELO     CLEAR     75  63  66 S3        30.12R
SAN ANTONIO    PTCLDY    76  72  87 SW7       30.08R
WACO           CLEAR     76  68  76 CALM      30.06R
WICHITA FALLS  NOT AVBL
$$
...OTHER LOCATIONS IN NEW MEXICO...

CITY           SKY/WX    TMP DP  RH WIND       PRES   REMARKS
ALAMAGORDO     MOCLDY    68  63  83 NW8       30.24R
ALBUQUERQUE    CLOUDY    66  59  78 NE7       30.35S
CANNON AFB     CLOUDY    66  63  87 W14       30.34R THUNDER
CLOVIS         CLOUDY    66  63  88 N14       30.33R
HOLLOMAN AFB   MOCLDY    67  65  93 W10       30.25R
ROSWELL        PTCLDY    68  62  81 N13       30.26R
RUIDOSO          N/A    N/A N/A N/A MISG        N/A
SANTA FE       LGT RAIN  61  57  87 NE3       30.43S
TRUTH OR CONSE CLOUDY    65  62  90 NE6       30.30R
TUCUMCARI      LGT RAIN  65  63  93 W9        30.34R
$$

USA.gov is the U.S. government's official web portal to all federal, state and local government web resources and services.